Simultaneous Nadir Overpasses (SNOs) Predictions

Prediction of SNOs between AQUA and NOAA-19 Satellite Orbit:

Table of predicted SNOs for the next 14.0 days since TLE Epoch: 3/4/2023
Index Date (AQUA) Time (AQUA) Lat,Lon (AQUA) SZA (AQUA ) Date (NOAA-19) Time (NOAA-19) Lat,Lon (NOAA-19) SZA (NOAA-19 ) Distance(km) Time Diff (sec)
1 03/05/2023 11:31:20 -76.74, 175.65 96.87 03/05/2023 11:31:01 -76.75, 175.64 96.86 0.58 19
2 03/05/2023 12:20:50 76.93, -17.38 83.34 03/05/2023 12:22:01 76.93, -16.36 83.27 25.61 71
3 03/07/2023 17:03:38 76.77, -87.51 82.30 03/07/2023 17:03:44 76.76, -87.44 82.28 2.50 6
4 03/09/2023 21:46:27 76.73,-158.03 81.38 03/09/2023 21:45:24 76.70,-158.01 81.37 2.58 63
5 03/09/2023 22:35:52 -76.75, 9.53 98.61 03/09/2023 22:36:18 -76.77, 9.56 98.60 2.47 26
6 03/12/2023 03:18:40 -76.71, -61.02 99.52 03/12/2023 03:17:58 -76.72, -61.00 99.51 1.00 42
7 03/12/2023 04:08:07 76.77, 106.41 80.54 03/12/2023 04:09:00 76.78, 106.48 80.53 1.83 53
8 03/14/2023 08:50:53 76.71, 35.97 79.59 03/14/2023 08:50:40 76.70, 35.82 79.59 3.91 13
9 03/14/2023 09:40:20 -76.82,-156.79 100.30 03/14/2023 09:41:33 -76.85,-156.31 100.32 12.60 73
10 03/16/2023 13:33:34 76.46, -33.86 78.43 03/16/2023 13:32:25 76.40, -35.75 78.49 49.92 69
11 03/16/2023 14:23:04 -76.72, 132.90 101.29 03/16/2023 14:23:14 -76.74, 132.88 101.28 1.85 10



Historial Predications of SNOs between AQUA and NOAA-19
